St. Stephen, New Brunswick

8:46 PM ADT on August 23, 2017 (GMT -0300)
St. Stephen

Weather History for CWSS - February, 2013

Change the Weather History Date:

Sunday, February 3, 2013

  Actual Average Record
Temperature  
Mean Temperature 20 °F -  
Max Temperature 23 °F - - ()
Min Temperature 16 °F - - ()
Degree Days  
Heating Degree Days 46    
Moisture  
Dew Point 16 °F    
Average Humidity 84    
Maximum Humidity 92    
Minimum Humidity 73    
Precipitation  
Precipitation 0.43 in - - ()
Sea Level Pressure  
Sea Level Pressure 29.94 in    
Wind  
Wind Speed 5 mph ()    
Max Wind Speed 12 mph    
Max Gust Speed -    
T = Trace of Precipitation, MM = Missing Value Source: Averaged Metar Reports

Daily Weather History Graph

Daily Weather History Graph

Search for Another Location

Airport or City:

Trip Planner

Search our weather history database for the weather conditions in past years. The results will help you decide how hot, cold, wet, or windy it might be!

Date:

Astronomy

Feb. 03, 2013 Rise Set
Actual Time 7:46 AM AST 5:39 PM AST
Civil Twilight 7:15 AM AST 6:10 PM AST
Nautical Twilight 6:40 AM AST 6:46 PM AST
Astronomical Twilight 6:05 AM AST 7:20 PM AST
Moon 1:10 AM AST (2/3) 11:12 AM AST (2/3)
Length of Visible Light 10h 55m
Length of Day
9h 53m
Waning Gibbous, 49% of the Moon is Illuminated
Feb 3
Waning Gibbous
Feb 10
New
Feb 17
First Quarter
Feb 25
Full
Mar 4
Last Quarter

Hourly Weather History & Observations

Time (AST) Temp. Windchill Dew Point Humidity Pressure Visibility Wind Dir Wind Speed Gust Speed Precip Events Conditions
12:00 AM 16.2 °F 10.6 °F 12.2 °F 84% 30.12 in - East 3.5 mph - N/A   Unknown
1:00 AM 16.3 °F 10.8 °F 13.6 °F 89% 30.11 in - East 3.5 mph - N/A   Unknown
2:00 AM 17 °F - 15 °F 85% 30.09 in - East 4.6 mph - -  
2:00 AM 17.2 °F 10.2 °F 14.5 °F 89% 30.09 in - East 4.6 mph - N/A   Unknown
3:00 AM 17.4 °F 12.1 °F 14.9 °F 90% 30.09 in - ENE 3.5 mph - N/A   Unknown
4:00 AM 18.0 °F 12.7 °F 15.4 °F 90% 30.08 in - ENE 3.5 mph - N/A   Unknown
5:00 AM 19 °F - 17 °F 86% 30.08 in - ENE 3.5 mph - -  
5:00 AM 18.7 °F 13.5 °F 16.7 °F 92% 30.08 in - ENE 3.5 mph - N/A   Unknown
6:00 AM 19.0 °F 12.3 °F 17.1 °F 92% 30.07 in - ENE 4.6 mph - N/A   Unknown
7:00 AM 19.4 °F 11.5 °F 17.4 °F 92% 30.05 in - NE 5.8 mph - N/A   Unknown
8:00 AM 19.8 °F 14.7 °F 17.6 °F 91% 30.05 in - NE 3.5 mph - N/A   Unknown
9:00 AM 19.2 °F 9.3 °F 16.0 °F 87% 30.03 in - NNE 8.1 mph - N/A   Unknown
10:00 AM 19.8 °F 9.9 °F 15.6 °F 84% 30.01 in - NNE 8.1 mph - N/A   Unknown
11:00 AM 20 °F - 16 °F 77% 30.01 in - NE 6.9 mph - -  
11:00 AM 19.6 °F 10.6 °F 15.8 °F 85% 30.01 in - NE 6.9 mph - N/A   Unknown
12:00 PM 19.9 °F 11.1 °F 15.3 °F 82% 29.98 in - NNE 6.9 mph - N/A   Unknown
1:00 PM 20.8 °F 11.2 °F 16.7 °F 84% 29.94 in - NNE 8.1 mph - N/A   Unknown
2:00 PM 22 °F - 17 °F 73% 29.90 in - NNE 9.2 mph - -  
2:00 PM 22.5 °F 12.4 °F 16.9 °F 79% 29.90 in - NNE 9.2 mph - N/A   Unknown
3:00 PM 22.1 °F 10.6 °F 16.3 °F 79% 29.88 in - NNE 11.5 mph - N/A   Unknown
4:00 PM 21.6 °F 11.3 °F 17.1 °F 83% 29.86 in - NNE 9.2 mph - N/A   Unknown
5:00 PM 21 °F - 16 °F 75% 29.86 in - North 8.1 mph - -  
5:00 PM 20.7 °F 11.0 °F 16.3 °F 83% 29.86 in - North 8.1 mph - N/A   Unknown
6:00 PM 20.1 °F 12.3 °F 15.8 °F 83% 29.83 in - North 5.8 mph - N/A   Unknown
7:00 PM 19.8 °F 14.7 °F 16.0 °F 85% 29.81 in - North 3.5 mph - N/A   Unknown
8:00 PM 20 °F - 16 °F 78% 29.76 in - NNE 5.8 mph - -  
8:00 PM 19.8 °F 11.9 °F 16.0 °F 85% 29.76 in - NNE 5.8 mph - N/A   Unknown
9:00 PM 19.9 °F 13.4 °F 16.2 °F 85% 29.76 in - North 4.6 mph - N/A   Unknown
10:00 PM 20.1 °F 12.3 °F 16.5 °F 86% 29.74 in - NNE 5.8 mph - N/A   Unknown
11:00 PM 20 °F - 16 °F 79% 29.70 in - NNE 3.5 mph - -  
11:00 PM 19.8 °F 14.7 °F 16.3 °F 87% 29.70 in - NNE 3.5 mph - N/A   Unknown